Regional Weather Roundup
Issued by NWS Kansas City/Pleasant Hill, MO

Home | Current Version | Previous Version | Text Only | Print | Product List | Glossary On
Versions: 1 2 3 4 5 6 7 8 9 10 11 12 13 14 15 16 17 18 19 20 21 22 23 24 25 26 27 28 29 30 31 32 33 34 35 36 37 38 39 40 41 42 43 44 45 46 47 48 49 50
000
ASUS43 KEAX 050710
RWREAX

WEATHER ROUNDUP FOR EASTERN KANSAS AND NORTHWEST MISSOURI
NATIONAL WEATHER SERVICE KANSAS CITY/PLEASANT HILL MO
200 AM CDT WED AUG 05 2015

KSZ040-057-103>105-MOZ028-029-037-043-050800-
...KANSAS CITY METROPOLITAN AREA...

CITY           SKY/WX    TMP DP  RH WIND       PRES   REMARKS
K.C. INTL      PTCLDY    70  68  93 SE10      29.99S
K.C. DOWNTOWN  MOCLDY    72  69  90 E3        29.98S
LEES SUMMIT    CLOUDY    71  68  90 SE6       30.00S
OLATHE - IXD   CLOUDY    71  69  93 E7        29.99F
OLATHE - OJC   CLOUDY    70  69  97 E5        29.98F
LAWRENCE       PTCLDY    70  69  97 SE5       29.97S FOG

$$

MOZ001>008-011>017-020>025-030>033-038>040-044>046-053-054-050800-
...NORTHERN AND CENTRAL MISSOURI...

CITY           SKY/WX    TMP DP  RH WIND       PRES   REMARKS
ST. JOSEPH     MOCLDY    71  68  90 SE7       29.98S
MOSBY          MOSUNNY   68  68 100 CALM      29.99S FOG
WARRENSBURG    DRIZZLE   70  68  94 S5        30.00S
WHITEMAN AFB   CLOUDY    70  69  95 CALM      29.98S
CLINTON        LGT RAIN  73  73 100 S6        30.00R
SEDALIA        CLOUDY    71  68  90 CALM      30.00S
WARSAW         NOT AVBL
CHILLICOTHE      N/A     72  69  90 CALM      29.99F
KIRKSVILLE     PTCLDY    67  64  90 E6        30.00F

$$

MOZ041-047>049-056>058-063>065-088>090-097-050800-
...EASTERN AND SOUTHERN MISSOURI...

CITY           SKY/WX    TMP DP  RH WIND       PRES   REMARKS
ST. LOUIS INTL CLOUDY    76  68  76 E8        30.00F
SPIRIT OF STL  CLOUDY    75  74  96 CALM      29.98F
COLUMBIA       MOCLDY    69  67  93 S7        30.02R
JEFFERSON CITY MOCLDY    71  67  87 CALM      29.99F
ROLLA          CLOUDY    71  63  75 S7        30.02R
OSAGE BEACH    CLOUDY    70  66  88 CALM      30.02F
SPRINGFIELD    LGT RAIN  72  68  87 E9        29.98F
BRANSON        CLOUDY    68  68 100 SE5       30.02F
JOPLIN         CLOUDY    73  70  90 E3        29.97R
WEST PLAINS    CLOUDY    73  62  68 SE6       30.03F

$$

IAZ060-094-KSZ022-034>040-054-083-096-NEZ052-066-093-050800-
...KANSAS...SOUTHEAST NEBRASKA AND IOWA...

CITY           SKY/WX    TMP DP  RH WIND       PRES   REMARKS
TOPEKA         MOCLDY    70  68  93 SE3       29.97R
MANHATTAN      CLOUDY    71  68  90 CALM      29.96R
EMPORIA        MOCLDY    70  67  90 SE6       29.96S
CHANUTE        MOCLDY    71  70  96 E5        29.96S FOG
WICHITA        MOCLDY    73  69  87 SE6       29.94F
OMAHA          MOCLDY    68  65  90 E6        29.98S
LINCOLN        CLOUDY    73  70  90 E6        29.98R
FALLS CITY     MOCLDY    69  68  96 SE3       29.98R
LAMONI         MOCLDY    70  66  87 VRB3      30.00S
DES MOINES     MOCLDY    70  62  76 E7        30.00F

$$



USA.gov is the U.S. government's official web portal to all federal, state and local government web resources and services.